Weather History for KDYT - September, 2012

Change the Weather History Date:

Thursday, September 6, 2012

  Actual Average Record
Temperature  
Mean Temperature 66 °F -  
Max Temperature 78 °F 70 °F 93 °F (1978)
Min Temperature 53 °F 51 °F 35 °F (1965)
Growing Degree Days 16 (Base 50)    
Moisture  
Dew Point 52 °F    
Average Humidity 67    
Maximum Humidity 88    
Minimum Humidity 32    
Precipitation  
Precipitation 0.00 in - - ()
Sea Level Pressure  
Sea Level Pressure 29.90 in    
Wind  
Wind Speed 10 mph (WSW)    
Max Wind Speed 17 mph    
Max Gust Speed 21 mph    
Visibility 10 miles    
Events Rain    
Averages and records for this station are not official NWS values.
T = Trace of Precipitation, MM = Missing Value Source: NWS Daily Summary

Daily Weather History Graph

Daily Weather History Graph

Search for Another Location

Airport or City:

Astronomy

Sep. 06, 2012 Rise Set
Actual Time 6:35 AM CDT 7:36 PM CDT
Civil Twilight 6:04 AM CDT 8:07 PM CDT
Nautical Twilight 5:26 AM CDT 8:44 PM CDT
Astronomical Twilight 4:47 AM CDT 9:23 PM CDT
Moon 10:21 PM CDT (9/6) 1:00 PM CDT (9/6)
Length of Visible Light 14h 03m
Length of Day
13h 01m
Waning Gibbous, 67% of the Moon is Illuminated
Sep 6
Waning Gibbous
Sep 8
Last Quarter
Sep 15
New
Sep 22
First Quarter
Sep 29
Full

Hourly Weather History & Observations

Time (CDT) Temp. Dew Point Humidity Pressure Visibility Wind Dir Wind Speed Gust Speed Precip Events Conditions
12:14 AM 59.0 °F 51.8 °F 77% 29.85 in 10.0 mi SW 9.2 mph - N/A   Clear
12:33 AM 59.0 °F 51.8 °F 77% 29.85 in 10.0 mi SW 10.4 mph - N/A   Clear
12:54 AM 59.0 °F 51.8 °F 77% 29.85 in 10.0 mi SW 9.2 mph - N/A   Clear
1:13 AM 57.2 °F 51.8 °F 82% 29.86 in 10.0 mi SW 9.2 mph - N/A   Clear
1:33 AM 57.2 °F 51.8 °F 82% 29.86 in 10.0 mi SW 9.2 mph - N/A   Clear
2:13 AM 57.2 °F 51.8 °F 82% 29.86 in 10.0 mi SW 8.1 mph - N/A   Clear
2:33 AM 55.4 °F 51.8 °F 88% 29.86 in 10.0 mi SW 9.2 mph - N/A   Clear
2:54 AM 55.4 °F 51.8 °F 88% 29.86 in 10.0 mi SW 9.2 mph - N/A   Clear
3:13 AM 55.4 °F 51.8 °F 88% 29.86 in 10.0 mi SSW 8.1 mph - N/A   Clear
3:33 AM 55.4 °F 51.8 °F 88% 29.86 in 10.0 mi SSW 8.1 mph - N/A   Clear
3:54 AM 55.4 °F 51.8 °F 88% 29.87 in 10.0 mi SSW 8.1 mph - N/A   Clear
4:13 AM 55.4 °F 50.0 °F 82% 29.87 in 10.0 mi SSW 6.9 mph - N/A   Clear
4:33 AM 55.4 °F 50.0 °F 82% 29.87 in 10.0 mi SSW 8.1 mph - N/A   Clear
4:54 AM 53.6 °F - N/A% 29.88 in 10.0 mi SSW 9.2 mph - N/A   Clear
5:13 AM 53.6 °F 50.0 °F 88% 29.88 in 10.0 mi SSW 9.2 mph - N/A   Clear
5:33 AM 53.6 °F 50.0 °F 88% 29.88 in 10.0 mi SSW 9.2 mph - N/A   Clear
5:54 AM 53.6 °F 48.2 °F 82% 29.88 in 10.0 mi SSW 8.1 mph - N/A   Clear
6:14 AM 53.6 °F 48.2 °F 82% 29.89 in 10.0 mi SSW 10.4 mph - N/A   Scattered Clouds
6:33 AM 53.6 °F 48.2 °F 82% 29.89 in 10.0 mi SSW 9.2 mph - N/A   Scattered Clouds
6:54 AM 53.6 °F 50.0 °F 88% 29.90 in 10.0 mi SSW 9.2 mph - N/A   Scattered Clouds
7:14 AM 53.6 °F 50.0 °F 88% 29.91 in 10.0 mi SSW 10.4 mph - N/A   Mostly Cloudy
7:33 AM 55.4 °F 51.8 °F 88% 29.91 in 10.0 mi SSW 10.4 mph - N/A   Mostly Cloudy
7:54 AM 55.4 °F 51.8 °F 88% 29.92 in 10.0 mi SSW 10.4 mph - N/A   Mostly Cloudy
8:14 AM 55.4 °F 51.8 °F 88% 29.91 in 10.0 mi SSW 9.2 mph - N/A   Scattered Clouds
8:33 AM 57.2 °F 51.8 °F 82% 29.91 in 10.0 mi SSW 9.2 mph - N/A   Clear
8:54 AM 59.0 °F 51.8 °F 77% 29.91 in 10.0 mi SSW 8.1 mph - N/A   Clear
9:14 AM 60.8 °F 51.8 °F 72% 29.92 in 10.0 mi SSW 9.2 mph - N/A   Clear
9:33 AM 62.6 °F 53.6 °F 72% 29.92 in 10.0 mi SSW 8.1 mph - N/A   Clear
9:54 AM 64.4 °F 53.6 °F 68% 29.92 in 10.0 mi SSW 5.8 mph - N/A   Clear
10:14 AM 66.2 °F 53.6 °F 64% 29.92 in 10.0 mi SSW 6.9 mph - N/A   Clear
10:33 AM 68.0 °F 53.6 °F 60% 29.92 in 10.0 mi South 5.8 mph - N/A   Clear
10:54 AM 69.8 °F 53.6 °F 56% 29.92 in 10.0 mi SSW 4.6 mph - N/A   Clear
11:14 AM 71.6 °F 53.6 °F 53% 29.92 in 10.0 mi SW 5.8 mph - N/A   Clear
11:33 AM 73.4 °F 53.6 °F 50% 29.91 in 10.0 mi SW 6.9 mph - N/A   Clear
11:54 AM 73.4 °F 51.8 °F 47% 29.91 in 10.0 mi West 6.9 mph - N/A   Clear
12:14 PM 75.2 °F 48.2 °F 38% 29.90 in 10.0 mi West 11.5 mph - N/A   Clear
12:33 PM 77.0 °F 48.2 °F 36% 29.90 in 10.0 mi West 17.3 mph 20.7 mph N/A   Scattered Clouds
12:54 PM 77.0 °F 46.4 °F 34% 29.89 in 10.0 mi WNW 12.7 mph - N/A   Clear
1:14 PM 75.2 °F 46.4 °F 36% 29.88 in 10.0 mi WNW 16.1 mph - N/A   Scattered Clouds
1:33 PM 77.0 °F 44.6 °F 32% 29.87 in 10.0 mi WNW 12.7 mph - N/A   Clear
1:53 PM 77.0 °F 46.4 °F 34% 29.87 in 10.0 mi WNW 11.5 mph - N/A   Clear
2:13 PM 77.0 °F 46.4 °F 34% 29.87 in 10.0 mi NW 10.4 mph - N/A   Clear
2:33 PM 78.8 °F 48.2 °F 34% 29.88 in 10.0 mi WNW 13.8 mph 17.3 mph N/A   Clear
2:54 PM 77.0 °F 46.4 °F 34% 29.87 in 10.0 mi WNW 13.8 mph 20.7 mph N/A   Clear
3:13 PM 77.0 °F 48.2 °F 36% 29.87 in 10.0 mi WNW 15.0 mph - N/A   Clear
3:33 PM 75.2 °F 48.2 °F 38% 29.87 in 10.0 mi WNW 11.5 mph - N/A   Clear
3:54 PM 75.2 °F 51.8 °F 44% 29.87 in 10.0 mi WNW 11.5 mph - N/A   Clear
4:13 PM 75.2 °F 51.8 °F 44% 29.88 in 10.0 mi NW 12.7 mph - N/A   Scattered Clouds
4:34 PM 75.2 °F 51.8 °F 44% 29.88 in 10.0 mi NW 13.8 mph - N/A   Scattered Clouds
4:53 PM 73.4 °F 51.8 °F 47% 29.88 in 10.0 mi NW 11.5 mph - N/A   Scattered Clouds
5:13 PM 73.4 °F 51.8 °F 47% 29.88 in 10.0 mi WNW 12.7 mph - N/A   Mostly Cloudy
5:34 PM 73.4 °F 48.2 °F 41% 29.88 in 10.0 mi NW 11.5 mph - N/A   Mostly Cloudy
5:53 PM 69.8 °F 55.4 °F 60% 29.89 in 10.0 mi NNW 15.0 mph 19.6 mph N/A Rain Light Rain
6:13 PM 69.8 °F 55.4 °F 60% 29.90 in 10.0 mi NNW 13.8 mph - N/A   Mostly Cloudy
6:34 PM 66.2 °F 57.2 °F 73% 29.90 in 10.0 mi NW 12.7 mph 17.3 mph N/A Rain Rain
6:53 PM 66.2 °F 55.4 °F 68% 29.91 in 10.0 mi WNW 9.2 mph 16.1 mph N/A   Light Drizzle
7:14 PM 66.2 °F 55.4 °F 68% 29.91 in 10.0 mi SSW 6.9 mph - N/A Rain Light Rain
7:33 PM 64.4 °F 55.4 °F 73% 29.91 in 10.0 mi SSW 6.9 mph - N/A Rain Light Rain
7:54 PM 64.4 °F 55.4 °F 73% 29.91 in 10.0 mi West 6.9 mph - N/A Rain Light Rain
8:14 PM 66.2 °F 53.6 °F 64% 29.92 in 10.0 mi WSW 4.6 mph - N/A   Overcast
8:33 PM 64.4 °F 53.6 °F 68% 29.92 in 10.0 mi West 15.0 mph 20.7 mph N/A   Drizzle
8:54 PM 64.4 °F 55.4 °F 73% 29.92 in 10.0 mi WNW 12.7 mph - N/A   Drizzle
9:13 PM 62.6 °F 55.4 °F 77% 29.92 in 10.0 mi West 11.5 mph - N/A   Light Drizzle
9:33 PM 62.6 °F 55.4 °F 77% 29.92 in 10.0 mi WSW 6.9 mph - N/A   Light Drizzle
9:54 PM 62.6 °F 55.4 °F 77% 29.93 in 10.0 mi SSW 9.2 mph - N/A   Light Drizzle
10:13 PM 60.8 °F 55.4 °F 82% 29.94 in 10.0 mi SW 8.1 mph - N/A Rain Light Rain
10:33 PM 60.8 °F 55.4 °F 82% 29.94 in 10.0 mi WSW 9.2 mph - N/A Rain Light Rain
10:54 PM 60.8 °F 55.4 °F 82% 29.95 in 10.0 mi WSW 11.5 mph - N/A Rain Light Rain
11:13 PM 60.8 °F 55.4 °F 82% 29.94 in 10.0 mi WSW 11.5 mph - N/A Rain Light Rain
11:33 PM 59.0 °F 55.4 °F 88% 29.94 in 10.0 mi WSW 8.1 mph - N/A Rain Light Rain
11:54 PM 59.0 °F 55.4 °F 88% 29.93 in 10.0 mi SW 6.9 mph - N/A Rain Rain